When you browse on this site, cookies collect data to enhance your experience and personalize the content and advertising you see.
Visit our Privacy Policy to learn more. By continuing to use the site, you agree to this use of cookies and data.
  • In France
  • List of Countries
  • For 7 days
  • Water Temperature
  • Satellite Maps
  • Weather Map
  • Weather Widgets
  • user-avatar
    Login

    Hourly Weather Zenica

    Today, 23 March, Saturday

    Time Temperature Precipitation Wind Pressure Humidity
    00:00 +2°C° 0 mm 1 mps 682 mmHg 80%
    01:00 +1°C° 0 mm 0 mps 682 mmHg 80%
    02:00 +2°C° 0 mm 1 mps 682 mmHg 80%
    03:00 +2°C° 0 mm 1 mps 682 mmHg 80%
    04:00 +2°C° 0 mm 1 mps 681 mmHg 80%
    05:00 +3°C° 0 mm 1 mps 682 mmHg 78%
    06:00 +3°C° 0 mm 1 mps 682 mmHg 76%
    07:00 +4°C° 0 mm 1 mps 682 mmHg 70%
    08:00 +7°C° 0 mm 1 mps 683 mmHg 64%
    09:00 +9°C° 0 mm 1 mps 683 mmHg 58%
    10:00 +10°C° 0 mm 2 mps 683 mmHg 52%
    11:00 +12°C° 0 mm 2 mps 683 mmHg 52%
    12:00 +13°C° 0 mm 2 mps 683 mmHg 51%
    13:00 +13°C° 0 mm 2 mps 683 mmHg 51%
    14:00 +13°C° 0 mm 2 mps 683 mmHg 53%
    15:00 +13°C° 0 mm 2 mps 683 mmHg 55%
    16:00 +12°C° 0 mm 2 mps 682 mmHg 58%
    17:00 +9°C° 0 mm 2 mps 682 mmHg 66%
    18:00 +8°C° 0 mm 1 mps 681 mmHg 75%
    19:00 +6°C° 0 mm 1 mps 681 mmHg 83%
    20:00 +5°C° 0 mm 1 mps 681 mmHg 85%
    21:00 +5°C° 0 mm 1 mps 681 mmHg 86%
    22:00 +3°C° 0 mm 0 mps 681 mmHg 88%
    23:00 +3°C° 0 mm 0 mps 681 mmHg 88%

    Tomorrow, 24 March, Sunday

    Time Temperature Precipitation Wind Pressure Humidity
    00:00 +3°C° 0 mm 0 mps 681 mmHg 88%
    01:00 +2°C° 0 mm 0 mps 681 mmHg 88%
    02:00 +2°C° 0 mm 0 mps 681 mmHg 88%
    03:00 +2°C° 0 mm 0 mps 680 mmHg 87%
    04:00 +2°C° 0 mm 0 mps 680 mmHg 86%
    05:00 +2°C° 0 mm 0 mps 680 mmHg 81%
    06:00 +3°C° 0 mm 0 mps 681 mmHg 77%
    07:00 +4°C° 0 mm 0 mps 681 mmHg 72%
    08:00 +7°C° 0 mm 1 mps 681 mmHg 60%
    09:00 +10°C° 0 mm 1 mps 682 mmHg 48%
    10:00 +13°C° 0 mm 1 mps 682 mmHg 36%
    11:00 +14°C° 0 mm 1 mps 682 mmHg 33%
    12:00 +15°C° 0 mm 1 mps 682 mmHg 31%
    13:00 +16°C° 0 mm 1 mps 682 mmHg 29%
    14:00 +16°C° 0 mm 1 mps 681 mmHg 29%
    15:00 +16°C° 0 mm 1 mps 681 mmHg 30%
    16:00 +15°C° 0 mm 0 mps 680 mmHg 31%
    17:00 +12°C° 0 mm 0 mps 680 mmHg 37%
    18:00 +10°C° 0 mm 0 mps 679 mmHg 44%
    19:00 +7°C° 0 mm 0 mps 678 mmHg 50%
    20:00 +7°C° 0 mm 0 mps 678 mmHg 53%
    21:00 +7°C° 0 mm 1 mps 678 mmHg 56%
    22:00 +7°C° 0 mm 1 mps 678 mmHg 59%
    23:00 +6°C° 0 mm 1 mps 678 mmHg 62%

    Day after tomorrow, 25 March, Monday

    Time Temperature Precipitation Wind Pressure Humidity
    00:00 +6°C° 0 mm 1 mps 677 mmHg 64%
    01:00 +6°C° 0 mm 1 mps 677 mmHg 66%
    02:00 +5°C° 0 mm 1 mps 677 mmHg 67%
    03:00 +5°C° 0 mm 1 mps 676 mmHg 68%
    04:00 +5°C° 0 mm 1 mps 676 mmHg 69%
    05:00 +5°C° 0 mm 1 mps 676 mmHg 68%
    06:00 +6°C° 0 mm 1 mps 676 mmHg 66%
    07:00 +7°C° 0 mm 1 mps 676 mmHg 65%
    08:00 +9°C° 0 mm 1 mps 676 mmHg 57%
    09:00 +11°C° 0 mm 0 mps 677 mmHg 48%
    10:00 +14°C° 0 mm 0 mps 677 mmHg 40%
    11:00 +16°C° 0 mm 1 mps 677 mmHg 38%
    12:00 +16°C° 0 mm 1 mps 677 mmHg 36%
    13:00 +18°C° 0 mm 1 mps 676 mmHg 34%
    14:00 +16°C° 0 mm 1 mps 676 mmHg 36%
    15:00 +15°C° 0 mm 2 mps 675 mmHg 39%
    16:00 +15°C° 0 mm 2 mps 674 mmHg 42%
    17:00 +13°C° 0 mm 2 mps 674 mmHg 52%
    18:00 +11°C° 0 mm 1 mps 674 mmHg 62%
    19:00 +9°C° 0 mm 1 mps 674 mmHg 71%
    20:00 +7°C° 1 mm 2 mps 675 mmHg 78%
    21:00 +4°C° 1 mm 3 mps 675 mmHg 86%
    22:00 +2°C° 1 mm 5 mps 676 mmHg 93%
    23:00 +1°C° 1.6 mm 4 mps 676 mmHg 92%

    26 March, Tuesday

    Time Temperature Precipitation Wind Pressure Humidity
    00:00 0°C° 1.6 mm 4 mps 676 mmHg 91%
    01:00 -1°C° 1.6 mm 4 mps 676 mmHg 90%
    02:00 -2°C° 0.1 mm 4 mps 676 mmHg 90%
    03:00 -1°C° 0.1 mm 3 mps 676 mmHg 90%
    04:00 -1°C° 0.1 mm 3 mps 676 mmHg 91%
    05:00 -2°C° 0.3 mm 3 mps 677 mmHg 89%
    06:00 -2°C° 0.3 mm 3 mps 677 mmHg 88%
    07:00 -2°C° 0.3 mm 3 mps 677 mmHg 86%
    08:00 -2°C° 0.5 mm 3 mps 678 mmHg 85%
    09:00 -1°C° 0.5 mm 3 mps 678 mmHg 83%
    10:00 -1°C° 0.5 mm 3 mps 679 mmHg 82%
    11:00 -2°C° 0.3 mm 4 mps 679 mmHg 80%
    12:00 -1°C° 0.3 mm 4 mps 679 mmHg 79%
    13:00 -1°C° 0.3 mm 4 mps 679 mmHg 78%
    14:00 0°C° 0.1 mm 4 mps 679 mmHg 75%
    15:00 0°C° 0.1 mm 4 mps 679 mmHg 73%
    16:00 0°C° 0.1 mm 4 mps 679 mmHg 71%
    17:00 -1°C° 0 mm 4 mps 679 mmHg 75%
    18:00 -1°C° 0 mm 3 mps 679 mmHg 79%
    19:00 -2°C° 0 mm 2 mps 679 mmHg 83%
    20:00 -2°C° 0 mm 2 mps 680 mmHg 85%
    21:00 -3°C° 0 mm 2 mps 680 mmHg 88%
    22:00 -3°C° 0 mm 2 mps 680 mmHg 90%
    23:00 -3°C° 0 mm 2 mps 680 mmHg 92%

    27 March, Wednesday

    Time Temperature Precipitation Wind Pressure Humidity
    00:00 -4°C° 0 mm 2 mps 680 mmHg 93%
    01:00 -4°C° 0 mm 2 mps 680 mmHg 94%
    02:00 -4°C° 0 mm 2 mps 680 mmHg 94%
    03:00 -2°C° 0 mm 1 mps 680 mmHg 93%
    04:00 -3°C° 0 mm 1 mps 680 mmHg 93%
    05:00 -2°C° 0 mm 1 mps 680 mmHg 89%
    06:00 -2°C° 0 mm 1 mps 681 mmHg 86%
    07:00 -2°C° 0 mm 1 mps 681 mmHg 82%
    08:00 -2°C° 0 mm 2 mps 681 mmHg 75%
    09:00 +1°C° 0 mm 2 mps 682 mmHg 67%
    10:00 +2°C° 0 mm 3 mps 682 mmHg 60%
    11:00 +2°C° 0 mm 3 mps 682 mmHg 59%
    12:00 +3°C° 0 mm 3 mps 682 mmHg 58%
    13:00 +3°C° 0 mm 4 mps 682 mmHg 58%
    14:00 +3°C° 0 mm 4 mps 682 mmHg 59%
    15:00 +1°C° 0 mm 4 mps 682 mmHg 61%
    16:00 +1°C° 0 mm 4 mps 681 mmHg 63%
    17:00 +1°C° 0 mm 3 mps 681 mmHg 69%
    18:00 0°C° 0 mm 3 mps 681 mmHg 76%
    19:00 -2°C° 0 mm 2 mps 681 mmHg 82%
    20:00 -2°C° 0 mm 2 mps 681 mmHg 84%
    21:00 -2°C° 0 mm 2 mps 681 mmHg 86%
    22:00 -1°C° 0 mm 1 mps 682 mmHg 87%
    23:00 -1°C° 0 mm 1 mps 682 mmHg 88%

    28 March, Thursday

    Time Temperature Precipitation Wind Pressure Humidity
    00:00 -1°C° 0 mm 1 mps 682 mmHg 88%
    01:00 -1°C° 0 mm 1 mps 682 mmHg 89%
    02:00 -3°C° 0 mm 2 mps 682 mmHg 89%
    03:00 -4°C° 0 mm 2 mps 682 mmHg 90%
    04:00 -4°C° 0 mm 2 mps 682 mmHg 91%
    05:00 -3°C° 0 mm 2 mps 682 mmHg 86%
    06:00 -3°C° 0 mm 2 mps 682 mmHg 81%
    07:00 -2°C° 0 mm 2 mps 683 mmHg 77%
    08:00 -1°C° 0 mm 3 mps 683 mmHg 70%
    09:00 0°C° 0 mm 4 mps 684 mmHg 64%
    10:00 +1°C° 0 mm 5 mps 684 mmHg 58%
    11:00 +2°C° 0 mm 5 mps 684 mmHg 57%
    12:00 +3°C° 0 mm 5 mps 684 mmHg 56%
    13:00 +3°C° 0 mm 5 mps 684 mmHg 55%
    14:00 +3°C° 0 mm 5 mps 684 mmHg 58%
    15:00 +3°C° 0 mm 5 mps 684 mmHg 60%
    16:00 +4°C° 0 mm 4 mps 683 mmHg 63%
    17:00 +2°C° 0 mm 3 mps 683 mmHg 72%
    18:00 +1°C° 0 mm 3 mps 683 mmHg 81%
    19:00 -1°C° 0 mm 2 mps 683 mmHg 90%
    20:00 -1°C° 0 mm 2 mps 683 mmHg 92%
    21:00 +1°C° 0 mm 1 mps 683 mmHg 93%
    22:00 0°C° 0 mm 1 mps 684 mmHg 94%
    23:00 0°C° 0 mm 1 mps 684 mmHg 94%
    Show more